Flag for Guadeloupe

Past Weather in 15°52'17.0"N, 61°35'24.8"W, Guadeloupe — Yesterday and Last 2 Weeks

Currently: 86 °F. Scattered clouds. (Weather station: Le Raizet - Guadeloupe, Guadeloupe). See more current weather

Past Weather in 15°52'17.0"N, 61°35'24.8"W — Graph

°F

15°52'17.0"N, 61°35'24.8"W Temperature Yesterday

Maximum temperature yesterday: 86 °F (at 12:30 pm)
Minimum temperature yesterday: 73 °F (at 5:00 am)
Average temperature yesterday: 79 °F

High & Low Weather Summary for the Past Weeks

 TemperatureHumidityPressure
High86 °F (May 2, 11:30 am)100% (May 2, 4:00 am)30.09 "Hg (May 2, 4:00 am)
Low70 °F (May 1, 5:30 am)52% (May 6, 2:00 pm)29.92 "Hg (May 1, 4:30 pm)
Average79 °F76%30.01 "Hg
* Reported Apr 30 11:00 am — May 15 11:00 am, 15°52'17.0"N, 61°35'24.8"W. Weather by CustomWeather, © 2021

Note: Actual official high and low records may vary slightly from our data, if they occured in-between our weather recording intervals... More about our weather records

15°52'17.0"N, 61°35'24.8"W Weather History for the Previous 24 Hours

Scroll right to see more
 ConditionsComfort  
Time TempWeatherWind HumidityBarometerVisibility
11:00 am
Sat, May 15
86 °FPartly sunny.16 mph62%30.01 "HgN/A
10:30 am86 °FPartly sunny.16 mph66%30.01 "HgN/A
10:00 am86 °FScattered clouds.15 mph62%30.04 "HgN/A
9:30 am84 °FPartly sunny.15 mph66%30.04 "HgN/A
8:30 am82 °FPartly sunny.12 mph74%30.04 "HgN/A
8:00 am82 °FPartly sunny.10 mph70%30.01 "HgN/A
7:30 am81 °FPartly sunny.9 mph79%30.01 "HgN/A
7:00 am81 °FSunny.6 mph79%30.01 "Hg10 mi
6:30 am79 °FBroken clouds.5 mph84%30.01 "HgN/A
6:00 am77 °FScattered clouds.5 mph89%30.01 "HgN/A
5:30 am77 °FLight rain. Fog.5 mph83%30.01 "Hg3 mi
5:00 am77 °FPassing clouds.3 mph83%29.98 "Hg6 mi
4:30 am77 °FOvercast.5 mph83%29.98 "Hg4 mi
4:00 am77 °FPassing clouds.5 mph83%29.98 "HgN/A
3:30 am77 °FMostly cloudy.2 mph89%29.98 "HgN/A
3:00 am75 °FPartly cloudy.5 mph94%29.98 "HgN/A
2:30 am75 °FLight rain. Mostly cloudy.7 mph94%29.98 "Hg4 mi
2:00 am77 °FLight rain. Partly cloudy.6 mph89%29.98 "Hg5 mi
1:30 am77 °FPartly cloudy.2 mph89%29.98 "HgN/A
1:00 am77 °FPassing clouds.6 mph89%29.98 "HgN/A
12:30 am77 °FMostly cloudy.3 mph89%29.98 "HgN/A
12:00 am77 °FPassing clouds.2 mph89%30.01 "HgN/A
11:30 pm
Fri, May 14
77 °FPassing clouds.2 mph89%30.01 "HgN/A
11:00 pm77 °FWarm.3 mph89%30.01 "HgN/A
10:30 pm77 °FPassing clouds.5 mph89%30.01 "HgN/A
10:00 pm79 °FPassing clouds.7 mph79%30.01 "HgN/A
9:30 pm79 °FPartly cloudy.6 mph84%30.01 "HgN/A
9:00 pm79 °FClear.5 mph79%30.01 "Hg10 mi
8:30 pm79 °FClear.3 mph84%29.98 "Hg10 mi
8:00 pm79 °FPassing clouds.6 mph84%29.98 "HgN/A
7:30 pm79 °FPassing clouds.6 mph79%29.98 "HgN/A
7:00 pm81 °FClear.8 mph70%29.98 "Hg10 mi
6:30 pm81 °FPassing clouds.12 mph74%29.98 "HgN/A
6:00 pm81 °FScattered clouds.10 mph74%29.95 "HgN/A
5:30 pm81 °FScattered clouds.13 mph70%29.95 "HgN/A
5:00 pm82 °FBroken clouds.12 mph70%29.95 "HgN/A
4:30 pm81 °FPartly sunny.12 mph70%29.95 "HgN/A
4:00 pm81 °FPartly sunny.14 mph70%29.95 "HgN/A
3:30 pm82 °FBroken clouds.14 mph70%29.95 "HgN/A
3:00 pm82 °FOvercast.16 mph66%29.95 "HgN/A
2:30 pm82 °FMostly cloudy.18 mph62%29.98 "HgN/A
2:00 pm82 °FMore clouds than sun.16 mph70%29.98 "HgN/A
1:30 pm84 °FMore clouds than sun.17 mph66%29.98 "HgN/A
1:00 pm84 °FMostly cloudy.15 mph66%29.98 "HgN/A
12:30 pm86 °FPartly sunny.16 mph62%30.01 "HgN/A
12:00 pm84 °FPartly sunny.18 mph62%30.01 "HgN/A
Weather by CustomWeather, © 2021

See weather overview